Terminal Aerodrome Forecast
Issued by NWS

Home | Current Version | Previous Version | Text Only | Print | Product List | Glossary Off
Versions: 1 2 3 4 5 6 7 8 9 10 11 12 13 14 15 16 17 18 19 20 21 22 23 24 25 26 27 28 29 30

985
FTUS43 KLOT 282340
TAFMDW
TAF
KMDW 282340Z 2900/2924 04009KT P6SM VCSH OVC012
     FM290200 04007KT 3SM -SHRA BR OVC007
     FM290700 01005KT 3SM -SHRA BR OVC003
     FM291200 02005KT 3SM BR OVC003
     FM291400 04007KT P6SM OVC008
     FM291600 04010KT P6SM OVC015
     FM292200 05010KT P6SM SCT025=

USA.gov is the U.S. government's official web portal to all federal, state and local government web resources and services.